CFG3PV LEPA-EDDL

Flight info

Callsign CFG3PV
Flight time N/A
Altitude 36000
Route MEROS5A MEROS N853 LUMAS DCT MAXIR DCT LUSOL DCT BODRU DCT OKTET DCT IRMAR DCT KINES DCT VANAS DCT MOBLO DCT UBIMA DCT GILIR DCT PENDU DCT IXILU DCT EPL DCT ROUSY DCT DIK/N0445F370 N853 ARCKY T853 NVO T857 BIKMU BIKMU1A
Aircraft A320/M-SDE3FGHIRWY/LB1

Departure

Time 2026-05-05 09:59
Airport Palma de Mallorca Airport (LEPA)

Arrival

Time N/A
Airport Düsseldorf Airport (EDDL)
Time Latitude Longitude Altitude Speed Heading
2026-05-05 09:37 39.55102 2.72902 38 ft 0 kts 163°
2026-05-05 09:46 39.55116 2.72897 38 ft 4 kts 160°
2026-05-05 09:46 39.55140 2.72882 36 ft 4 kts 144°
2026-05-05 09:46 39.55157 2.72859 38 ft 4 kts 101°
2026-05-05 09:46 39.55157 2.72842 36 ft 0 kts 58°
2026-05-05 09:51 39.55160 2.72848 37 ft 4 kts 57°
2026-05-05 09:52 39.55190 2.72910 38 ft 11 kts 58°
2026-05-05 09:52 39.55228 2.72990 38 ft 10 kts 58°
2026-05-05 09:52 39.55274 2.73038 38 ft 9 kts
2026-05-05 09:52 39.55349 2.72993 38 ft 13 kts 327°
2026-05-05 09:53 39.55421 2.73010 37 ft 12 kts 50°
2026-05-05 09:53 39.55476 2.73118 38 ft 15 kts 58°
2026-05-05 09:53 39.55526 2.73228 38 ft 13 kts 59°
2026-05-05 09:53 39.55572 2.73325 38 ft 12 kts 59°
2026-05-05 09:54 39.55629 2.73446 38 ft 17 kts 58°
2026-05-05 09:54 39.55689 2.73573 38 ft 16 kts 59°
2026-05-05 09:54 39.55745 2.73690 38 ft 15 kts 58°
2026-05-05 09:54 39.55796 2.73798 38 ft 13 kts 58°
2026-05-05 09:55 39.55842 2.73897 38 ft 13 kts 58°
2026-05-05 09:55 39.55912 2.74044 37 ft 23 kts 58°
2026-05-05 09:55 39.55992 2.74215 38 ft 22 kts 59°
2026-05-05 09:55 39.56096 2.74313 38 ft 11 kts 26°
2026-05-05 09:56 39.56134 2.74334 38 ft 0 kts 24°
2026-05-05 09:57 39.56137 2.74336 38 ft 3 kts 24°
2026-05-05 09:57 39.56199 2.74340 38 ft 12 kts 343°
2026-05-05 09:57 39.56235 2.74294 38 ft 6 kts 267°
2026-05-05 09:58 39.56224 2.74259 38 ft 0 kts 237°
2026-05-05 09:58 39.56222 2.74256 38 ft 7 kts 237°
2026-05-05 09:58 39.56062 2.73920 38 ft 78 kts 239°
2026-05-05 09:58 39.55687 2.73124 38 ft 129 kts 238°
2026-05-05 09:59 39.55153 2.71977 123 ft 160 kts 240°
2026-05-05 09:59 39.54618 2.70736 704 ft 156 kts 241°
2026-05-05 09:59 39.54049 2.69527 1305 ft 159 kts 236°
2026-05-05 09:59 39.53431 2.68245 1597 ft 177 kts 236°
2026-05-05 10:00 39.52736 2.66809 1745 ft 198 kts 235°
2026-05-05 10:00 39.51982 2.65245 2085 ft 209 kts 236°
2026-05-05 10:00 39.51213 2.63643 2751 ft 209 kts 237°
2026-05-05 10:00 39.50448 2.62042 3400 ft 209 kts 236°
2026-05-05 10:01 39.49486 2.60602 3826 ft 222 kts 214°
2026-05-05 10:01 39.48051 2.59616 4117 ft 245 kts 206°
2026-05-05 10:01 39.46504 2.58627 4714 ft 256 kts 206°
2026-05-05 10:01 39.44882 2.57585 5433 ft 263 kts 207°
2026-05-05 10:02 39.43171 2.56727 6222 ft 268 kts 188°
2026-05-05 10:02 39.41320 2.57085 6946 ft 277 kts 154°
2026-05-05 10:02 39.39791 2.58622 7713 ft 282 kts 136°
2026-05-05 10:02 39.38381 2.60391 8508 ft 283 kts 142°
2026-05-05 10:03 39.36895 2.62066 9322 ft 285 kts 139°
2026-05-05 10:03 39.35495 2.63913 10098 ft 288 kts 138°
2026-05-05 10:03 39.34012 2.65776 10372 ft 309 kts 140°
2026-05-05 10:03 39.32376 2.67740 10519 ft 332 kts 141°
2026-05-05 10:04 39.30629 2.69819 10769 ft 349 kts 141°
2026-05-05 10:04 39.28832 2.71980 11312 ft 356 kts 140°
2026-05-05 10:04 39.27345 2.74595 11882 ft 372 kts 117°
2026-05-05 10:04 39.26791 2.77897 12456 ft 385 kts 95°
2026-05-05 10:05 39.26732 2.81331 13061 ft 391 kts 92°
2026-05-05 10:05 39.26736 2.84858 13681 ft 396 kts 90°
2026-05-05 10:05 39.27072 2.88414 14214 ft 404 kts 78°
2026-05-05 10:05 39.27929 2.91892 14756 ft 409 kts 67°
2026-05-05 10:06 39.29236 2.95171 15299 ft 414 kts 59°
2026-05-05 10:06 39.30681 2.98410 15835 ft 418 kts 59°
2026-05-05 10:06 39.32131 3.01685 16386 ft 423 kts 60°
2026-05-05 10:06 39.33606 3.05021 16903 ft 428 kts 60°
2026-05-05 10:07 39.35089 3.08374 17449 ft 431 kts 59°
2026-05-05 10:07 39.36584 3.11752 17968 ft 436 kts 59°
2026-05-05 10:07 39.38099 3.15177 18453 ft 440 kts 59°
2026-05-05 10:07 39.39622 3.18627 18884 ft 444 kts 59°
2026-05-05 10:08 39.41162 3.22108 19323 ft 447 kts 59°
2026-05-05 10:08 39.42691 3.25572 19752 ft 451 kts 59°
2026-05-05 10:08 39.44272 3.29101 20182 ft 455 kts 59°
2026-05-05 10:08 39.45891 3.32631 20609 ft 458 kts 58°
2026-05-05 10:09 39.47543 3.36183 21034 ft 462 kts 58°
2026-05-05 10:09 39.49209 3.39755 21463 ft 466 kts 58°
2026-05-05 10:09 39.50884 3.43368 21882 ft 469 kts 58°
2026-05-05 10:09 39.52564 3.47012 22302 ft 473 kts 59°
2026-05-05 10:10 39.54256 3.50699 22746 ft 476 kts 59°
2026-05-05 10:10 39.55948 3.54392 23162 ft 479 kts 59°
2026-05-05 10:10 39.57659 3.58137 23565 ft 483 kts 59°
2026-05-05 10:10 39.59356 3.61862 23902 ft 486 kts 59°
2026-05-05 10:11 39.61081 3.65656 24245 ft 489 kts 59°
2026-05-05 10:11 39.62813 3.69468 24576 ft 492 kts 59°
2026-05-05 10:11 39.64556 3.73301 24914 ft 495 kts 59°
2026-05-05 10:11 39.66313 3.77162 25244 ft 497 kts 59°
2026-05-05 10:12 39.68080 3.81047 25570 ft 500 kts 59°
2026-05-05 10:12 39.69855 3.84951 25919 ft 502 kts 59°
2026-05-05 10:12 39.71609 3.88828 26250 ft 505 kts 59°
2026-05-05 10:12 39.73391 3.92770 26573 ft 507 kts 59°
2026-05-05 10:13 39.75185 3.96744 26913 ft 510 kts 59°
2026-05-05 10:13 39.76984 4.00731 27216 ft 513 kts 59°
2026-05-05 10:13 39.78794 4.04751 27507 ft 516 kts 59°
2026-05-05 10:13 39.80613 4.08802 27789 ft 519 kts 59°
2026-05-05 10:14 39.82595 4.12730 28059 ft 520 kts 50°
2026-05-05 10:14 39.85013 4.16222 28340 ft 520 kts 40°
2026-05-05 10:14 39.87811 4.19174 28619 ft 518 kts 30°
2026-05-05 10:14 39.90909 4.21526 28914 ft 513 kts 20°
2026-05-05 10:15 39.94204 4.23236 29211 ft 508 kts 11°
2026-05-05 10:15 39.97582 4.24273 29571 ft 501 kts
2026-05-05 10:15 40.01017 4.25066 29933 ft 501 kts
2026-05-05 10:15 40.04457 4.25862 30267 ft 501 kts
2026-05-05 10:16 40.07893 4.26667 30597 ft 501 kts
2026-05-05 10:16 40.11326 4.27479 30941 ft 501 kts
2026-05-05 10:16 40.14752 4.28292 31283 ft 500 kts
2026-05-05 10:16 40.18173 4.29101 31645 ft 500 kts
2026-05-05 10:17 40.21593 4.29910 31964 ft 500 kts
2026-05-05 10:17 40.24986 4.30713 32298 ft 499 kts
2026-05-05 10:17 40.28407 4.31524 32647 ft 499 kts
2026-05-05 10:17 40.31825 4.32338 32997 ft 499 kts
2026-05-05 10:18 40.35240 4.33151 33346 ft 498 kts
2026-05-05 10:18 40.38657 4.33965 33694 ft 497 kts
2026-05-05 10:18 40.42063 4.34775 34057 ft 497 kts
2026-05-05 10:18 40.45470 4.35585 34351 ft 497 kts
2026-05-05 10:19 40.48867 4.36393 34655 ft 496 kts
2026-05-05 10:19 40.52258 4.37201 34958 ft 495 kts
2026-05-05 10:19 40.55647 4.38006 35257 ft 494 kts
2026-05-05 10:19 40.58984 4.38801 35541 ft 493 kts
2026-05-05 10:20 40.62364 4.39609 35846 ft 492 kts
2026-05-05 10:20 40.65736 4.40418 35955 ft 492 kts
2026-05-05 10:20 40.72467 4.42037 35976 ft 491 kts
2026-05-05 10:21 40.79199 4.43656 35980 ft 491 kts
2026-05-05 10:21 40.85928 4.45272 35970 ft 491 kts
2026-05-05 10:22 40.92614 4.46882 35975 ft 492 kts
2026-05-05 10:22 40.99344 4.48515 35975 ft 492 kts
2026-05-05 10:23 41.06080 4.50153 35998 ft 492 kts
2026-05-05 10:23 41.12809 4.51797 35975 ft 492 kts
2026-05-05 10:24 41.19546 4.53436 35975 ft 492 kts
2026-05-05 10:24 41.26293 4.55080 36000 ft 493 kts
2026-05-05 10:25 41.33045 4.56740 35974 ft 493 kts
2026-05-05 10:25 41.39746 4.58376 35976 ft 493 kts
2026-05-05 10:26 41.46500 4.60039 35978 ft 493 kts
2026-05-05 10:26 41.53260 4.61708 35979 ft 494 kts
2026-05-05 10:27 41.60016 4.63377 35978 ft 494 kts
2026-05-05 10:27 41.66779 4.65047 35977 ft 494 kts
2026-05-05 10:28 41.73471 4.67304 35976 ft 503 kts 17°
2026-05-05 10:28 41.79684 4.71770 35977 ft 510 kts 27°
2026-05-05 10:29 41.85775 4.76669 35979 ft 510 kts 27°
2026-05-05 10:29 41.91814 4.81530 35968 ft 509 kts 27°
2026-05-05 10:30 41.97874 4.86418 35977 ft 508 kts 27°
2026-05-05 10:30 42.03940 4.91322 35980 ft 508 kts 27°
2026-05-05 10:31 42.09995 4.96236 35977 ft 508 kts 27°
2026-05-05 10:31 42.16024 5.01140 35975 ft 505 kts 28°
2026-05-05 10:32 42.22041 5.06041 35975 ft 505 kts 28°
2026-05-05 10:32 42.27039 5.10115 35975 ft 505 kts 28°
2026-05-05 10:33 42.33050 5.15033 35971 ft 504 kts 28°
2026-05-05 10:33 42.39059 5.19963 35975 ft 504 kts 28°
2026-05-05 10:34 42.45061 5.24890 35974 ft 504 kts 28°
2026-05-05 10:34 42.51014 5.29798 35982 ft 504 kts 28°
2026-05-05 10:35 42.57009 5.34746 35960 ft 503 kts 28°
2026-05-05 10:35 42.62984 5.39695 35972 ft 502 kts 28°
2026-05-05 10:36 42.68945 5.44643 35972 ft 502 kts 28°
2026-05-05 10:36 42.74910 5.49599 35972 ft 502 kts 28°
2026-05-05 10:37 42.80874 5.54562 35969 ft 502 kts 28°
2026-05-05 10:37 42.86837 5.59529 35970 ft 502 kts 28°
2026-05-05 10:38 42.92793 5.64518 35963 ft 503 kts 29°
2026-05-05 10:38 42.98753 5.69529 35967 ft 503 kts 29°
2026-05-05 10:39 43.04672 5.74503 35969 ft 502 kts 29°
2026-05-05 10:39 43.10609 5.79505 35969 ft 502 kts 29°
2026-05-05 10:40 43.16553 5.84521 35967 ft 502 kts 29°
2026-05-05 10:40 43.22502 5.89553 35966 ft 502 kts 29°
2026-05-05 10:41 43.28452 5.94603 35987 ft 502 kts 29°
2026-05-05 10:41 43.34368 5.99629 35966 ft 504 kts 28°
2026-05-05 10:42 43.40706 6.03500 35954 ft 495 kts 11°
2026-05-05 10:42 43.44058 6.04456 35953 ft 489 kts
2026-05-05 10:43 43.50815 6.05174 35949 ft 488 kts 358°
2026-05-05 10:43 43.57591 6.05863 35956 ft 489 kts 359°
2026-05-05 10:44 43.64381 6.06569 35954 ft 488 kts 359°
2026-05-05 10:44 43.71126 6.07251 35954 ft 489 kts 359°
2026-05-05 10:45 43.77891 6.08782 35958 ft 499 kts 14°
2026-05-05 10:45 43.84279 6.12686 35960 ft 503 kts 23°
2026-05-05 10:46 43.90561 6.16979 35958 ft 504 kts 23°
2026-05-05 10:46 43.96851 6.21274 35961 ft 504 kts 23°
2026-05-05 10:47 44.03149 6.25587 35960 ft 505 kts 23°
2026-05-05 10:47 44.09460 6.29914 35948 ft 507 kts 23°
2026-05-05 10:48 44.15789 6.34273 35959 ft 507 kts 23°
2026-05-05 10:48 44.22111 6.38649 35953 ft 508 kts 23°
2026-05-05 10:49 44.28407 6.43001 35967 ft 508 kts 23°
2026-05-05 10:49 44.34756 6.47390 35921 ft 507 kts 23°
2026-05-05 10:50 44.41069 6.51757 35958 ft 505 kts 24°
2026-05-05 10:50 44.47358 6.56134 35968 ft 504 kts 24°
2026-05-05 10:51 44.53598 6.60488 35962 ft 504 kts 24°
2026-05-05 10:51 44.59874 6.64893 35971 ft 504 kts 24°
2026-05-05 10:52 44.66154 6.69304 35965 ft 505 kts 24°
2026-05-05 10:52 44.72439 6.73716 35977 ft 504 kts 24°
2026-05-05 10:53 44.78886 6.77479 35975 ft 499 kts 11°
2026-05-05 10:53 44.85672 6.78681 35980 ft 487 kts 353°
2026-05-05 10:54 44.92432 6.78226 35979 ft 486 kts 352°
2026-05-05 10:54 44.99197 6.77774 36005 ft 486 kts 352°
2026-05-05 10:55 45.05922 6.77332 35987 ft 487 kts 352°
2026-05-05 10:55 45.12693 6.76899 35987 ft 487 kts 352°
2026-05-05 10:56 45.19457 6.76455 35997 ft 487 kts 352°
2026-05-05 10:56 45.26230 6.75998 35968 ft 488 kts 352°
2026-05-05 10:57 45.33014 6.75536 35967 ft 488 kts 352°
2026-05-05 10:57 45.39798 6.75078 35970 ft 488 kts 352°
2026-05-05 10:58 45.46584 6.74630 35958 ft 488 kts 352°
2026-05-05 10:58 45.53335 6.74181 35949 ft 488 kts 352°
2026-05-05 10:59 45.60110 6.73717 35953 ft 487 kts 352°
2026-05-05 10:59 45.66867 6.73250 35932 ft 486 kts 352°
2026-05-05 11:00 45.73620 6.72785 35925 ft 486 kts 352°
2026-05-05 11:00 45.80380 6.72322 35928 ft 485 kts 353°
2026-05-05 11:01 45.87102 6.71853 35925 ft 484 kts 353°
2026-05-05 11:01 45.93829 6.71391 35917 ft 484 kts 353°
2026-05-05 11:02 46.00550 6.70931 35918 ft 483 kts 354°
2026-05-05 11:02 46.07263 6.70491 35908 ft 482 kts 354°
2026-05-05 11:03 46.13888 6.69396 35907 ft 475 kts 341°
2026-05-05 11:03 46.20099 6.66481 35907 ft 473 kts 337°
2026-05-05 11:04 46.26346 6.63450 35907 ft 473 kts 337°
2026-05-05 11:04 46.32592 6.60418 35902 ft 473 kts 337°
2026-05-05 11:05 46.38831 6.57379 35908 ft 473 kts 337°
2026-05-05 11:05 46.45068 6.54319 35906 ft 473 kts 338°
2026-05-05 11:06 46.51264 6.51275 35907 ft 473 kts 338°
2026-05-05 11:06 46.57504 6.48205 35907 ft 473 kts 338°
2026-05-05 11:07 46.63749 6.45126 35906 ft 474 kts 338°
2026-05-05 11:07 46.70009 6.42037 35906 ft 475 kts 338°
2026-05-05 11:08 46.76226 6.38948 35905 ft 475 kts 338°
2026-05-05 11:08 46.82482 6.35836 35901 ft 475 kts 338°
2026-05-05 11:09 46.88739 6.32720 35885 ft 475 kts 338°
2026-05-05 11:09 46.94997 6.29596 35901 ft 475 kts 338°
2026-05-05 11:10 47.01261 6.26466 35896 ft 475 kts 338°
2026-05-05 11:10 47.07463 6.23113 35885 ft 473 kts 330°
2026-05-05 11:11 47.13363 6.18847 35890 ft 473 kts 330°
2026-05-05 11:11 47.19279 6.14573 35886 ft 474 kts 331°
2026-05-05 11:12 47.25172 6.10333 35888 ft 474 kts 331°
2026-05-05 11:12 47.31100 6.06084 35884 ft 475 kts 334°
2026-05-05 11:13 47.37493 6.03548 35887 ft 480 kts 353°
2026-05-05 11:13 47.44187 6.03455 35881 ft 481 kts
2026-05-05 11:14 47.50874 6.03616 35881 ft 480 kts 360°
2026-05-05 11:14 47.57545 6.03772 35878 ft 480 kts 360°
2026-05-05 11:15 47.64225 6.03924 35876 ft 480 kts 360°
2026-05-05 11:15 47.70856 6.04066 35873 ft 478 kts
2026-05-05 11:16 47.77507 6.04226 35872 ft 478 kts
2026-05-05 11:16 47.84161 6.04435 35879 ft 478 kts
2026-05-05 11:17 47.90814 6.04657 35877 ft 478 kts
2026-05-05 11:17 47.97457 6.04872 35872 ft 477 kts
2026-05-05 11:18 48.04096 6.05083 35873 ft 477 kts
2026-05-05 11:18 48.10743 6.05287 35872 ft 478 kts
2026-05-05 11:19 48.17404 6.05489 35868 ft 478 kts
2026-05-05 11:19 48.24062 6.05701 35866 ft 478 kts
2026-05-05 11:20 48.30690 6.05917 35866 ft 480 kts
2026-05-05 11:20 48.37374 6.06161 35862 ft 481 kts
2026-05-05 11:21 48.44073 6.06495 35864 ft 481 kts
2026-05-05 11:21 48.50763 6.06847 35869 ft 482 kts
2026-05-05 11:22 48.57439 6.07160 35906 ft 483 kts
2026-05-05 11:22 48.64136 6.07473 35893 ft 480 kts
2026-05-05 11:23 48.70818 6.07782 35866 ft 479 kts
2026-05-05 11:23 48.77489 6.08101 35867 ft 479 kts
2026-05-05 11:24 48.84150 6.08417 35887 ft 479 kts
2026-05-05 11:24 48.89690 6.08689 35890 ft 479 kts
2026-05-05 11:25 48.97444 6.09068 35893 ft 481 kts
2026-05-05 11:25 49.04149 6.09379 35890 ft 482 kts
2026-05-05 11:26 49.09764 6.09648 35887 ft 482 kts
2026-05-05 11:26 49.16441 6.09972 35884 ft 483 kts
2026-05-05 11:27 49.23163 6.10301 35869 ft 483 kts
2026-05-05 11:27 49.29881 6.10635 35868 ft 483 kts
2026-05-05 11:28 49.36601 6.10966 35865 ft 483 kts
2026-05-05 11:28 49.43327 6.11300 35863 ft 484 kts
2026-05-05 11:29 49.50054 6.11629 35864 ft 484 kts
2026-05-05 11:29 49.56743 6.11890 35865 ft 484 kts
2026-05-05 11:30 49.63481 6.12113 35821 ft 483 kts
2026-05-05 11:30 49.66841 6.12228 35239 ft 483 kts
2026-05-05 11:30 49.70196 6.12351 34929 ft 480 kts
2026-05-05 11:31 49.76927 6.12612 34871 ft 486 kts
2026-05-05 11:31 49.83698 6.12878 34859 ft 486 kts 360°
2026-05-05 11:32 49.90407 6.13078 34852 ft 485 kts 359°
2026-05-05 11:32 49.97151 6.13100 34848 ft 485 kts 358°
2026-05-05 11:33 50.03893 6.13084 34855 ft 484 kts 358°
2026-05-05 11:33 50.10627 6.13100 34843 ft 483 kts 358°
2026-05-05 11:34 50.17349 6.13149 34851 ft 483 kts 358°
2026-05-05 11:34 50.24059 6.13226 34242 ft 482 kts
2026-05-05 11:34 50.27398 6.13849 33525 ft 486 kts 10°
2026-05-05 11:35 50.30618 6.15218 32822 ft 487 kts 19°
2026-05-05 11:35 50.33718 6.17325 32133 ft 487 kts 28°
2026-05-05 11:35 50.36606 6.20080 31443 ft 486 kts 34°
2026-05-05 11:35 50.39433 6.22993 30744 ft 486 kts 34°
2026-05-05 11:36 50.42255 6.25897 30060 ft 485 kts 33°
2026-05-05 11:36 50.45072 6.28796 29278 ft 484 kts 34°
2026-05-05 11:36 50.47874 6.31686 28654 ft 480 kts 33°
2026-05-05 11:36 50.50660 6.34531 28101 ft 473 kts 32°
2026-05-05 11:37 50.53451 6.37222 27521 ft 468 kts 31°
2026-05-05 11:37 50.56249 6.39789 26926 ft 463 kts 30°
2026-05-05 11:37 50.59042 6.42280 26344 ft 459 kts 30°
2026-05-05 11:37 50.61808 6.44740 25767 ft 454 kts 30°
2026-05-05 11:38 50.64508 6.47163 25217 ft 450 kts 30°
2026-05-05 11:38 50.67206 6.49620 24657 ft 446 kts 31°
2026-05-05 11:38 50.69865 6.52077 24126 ft 441 kts 31°
2026-05-05 11:38 50.72497 6.54529 23586 ft 437 kts 31°
2026-05-05 11:39 50.75105 6.56965 22936 ft 434 kts 31°
2026-05-05 11:39 50.77693 6.59383 22325 ft 431 kts 31°
2026-05-05 11:39 50.80286 6.61738 21705 ft 427 kts 27°
2026-05-05 11:39 50.83019 6.63483 21123 ft 423 kts 17°
2026-05-05 11:40 50.85878 6.64452 20542 ft 418 kts
2026-05-05 11:40 50.88751 6.65048 19971 ft 414 kts
2026-05-05 11:40 50.91591 6.65642 19450 ft 410 kts
2026-05-05 11:40 50.94413 6.66241 18981 ft 408 kts
2026-05-05 11:41 50.97211 6.66841 18597 ft 404 kts
2026-05-05 11:41 50.99985 6.67436 18138 ft 400 kts
2026-05-05 11:41 51.02748 6.67855 17595 ft 397 kts
2026-05-05 11:41 51.05498 6.67691 17058 ft 394 kts 356°
2026-05-05 11:42 51.08220 6.67557 16508 ft 391 kts
2026-05-05 11:42 51.10896 6.68132 15972 ft 387 kts 13°
2026-05-05 11:42 51.13436 6.69499 15453 ft 384 kts 25°
2026-05-05 11:42 51.15830 6.71363 14918 ft 382 kts 26°
2026-05-05 11:43 51.18216 6.73237 14471 ft 379 kts 26°
2026-05-05 11:43 51.20575 6.75084 13971 ft 378 kts 26°
2026-05-05 11:43 51.22927 6.76923 13476 ft 375 kts 26°
2026-05-05 11:43 51.25262 6.78754 12975 ft 372 kts 26°
2026-05-05 11:44 51.27579 6.80573 12440 ft 370 kts 26°
2026-05-05 11:44 51.29846 6.82354 11965 ft 366 kts 27°
2026-05-05 11:44 51.32117 6.84141 11389 ft 360 kts 27°
2026-05-05 11:44 51.34374 6.85920 10832 ft 360 kts 27°
2026-05-05 11:45 51.36602 6.87677 10526 ft 352 kts 27°
2026-05-05 11:45 51.38752 6.89371 10396 ft 335 kts 27°
2026-05-05 11:45 51.40751 6.90945 10251 ft 305 kts 27°
2026-05-05 11:45 51.42570 6.92380 10105 ft 280 kts 28°
2026-05-05 11:46 51.44273 6.93728 9886 ft 268 kts 28°
2026-05-05 11:46 51.45931 6.95044 9618 ft 263 kts 28°
2026-05-05 11:46 51.47569 6.96343 9257 ft 262 kts 29°
2026-05-05 11:46 51.49068 6.97968 8897 ft 258 kts 45°
2026-05-05 11:47 51.50226 7.00130 8558 ft 254 kts 55°
2026-05-05 11:47 51.51283 7.02407 8212 ft 254 kts 55°
2026-05-05 11:47 51.52347 7.04668 7858 ft 253 kts 56°
2026-05-05 11:47 51.53406 7.06918 7543 ft 251 kts 54°
2026-05-05 11:48 51.55512 7.11396 6912 ft 250 kts 55°
2026-05-05 11:48 51.56558 7.13620 6608 ft 249 kts 54°
2026-05-05 11:48 51.57598 7.15828 6305 ft 248 kts 55°
2026-05-05 11:49 51.58637 7.18038 5979 ft 247 kts 54°
2026-05-05 11:49 51.59671 7.20236 5697 ft 244 kts 54°
2026-05-05 11:49 51.60686 7.22410 5387 ft 243 kts 54°
2026-05-05 11:49 51.61692 7.24580 5078 ft 242 kts 55°
2026-05-05 11:50 51.62694 7.26750 4737 ft 242 kts 54°
2026-05-05 11:50 51.63696 7.28925 4423 ft 241 kts 54°
2026-05-05 11:50 51.64692 7.31091 4124 ft 240 kts 54°
2026-05-05 11:50 51.65677 7.33233 4001 ft 237 kts 54°
2026-05-05 11:51 51.66655 7.35370 4011 ft 238 kts 54°
2026-05-05 11:51 51.67626 7.37532 4014 ft 238 kts 59°
2026-05-05 11:51 51.68182 7.40000 4013 ft 235 kts 86°
2026-05-05 11:51 51.67981 7.42583 4014 ft 233 kts 113°
2026-05-05 11:52 51.67087 7.44712 4015 ft 231 kts 140°
2026-05-05 11:52 51.65709 7.45966 4010 ft 227 kts 166°
2026-05-05 11:52 51.64170 7.46104 4008 ft 227 kts 191°
2026-05-05 11:52 51.62719 7.45126 4010 ft 228 kts 217°
2026-05-05 11:53 51.61546 7.43394 4010 ft 230 kts 224°
2026-05-05 11:53 51.60393 7.41613 4011 ft 229 kts 223°
2026-05-05 11:53 51.59244 7.39843 4011 ft 229 kts 223°
2026-05-05 11:53 51.58090 7.38072 4009 ft 228 kts 223°
2026-05-05 11:54 51.56944 7.36320 4008 ft 229 kts 223°
2026-05-05 11:54 51.55869 7.34425 3980 ft 230 kts 233°
2026-05-05 11:54 51.54923 7.32392 3785 ft 225 kts 233°
2026-05-05 11:54 51.53990 7.30388 3507 ft 223 kts 232°
2026-05-05 11:55 51.53059 7.28392 3215 ft 223 kts 233°
2026-05-05 11:55 51.52125 7.26407 3018 ft 223 kts 232°
2026-05-05 11:55 51.51180 7.24418 3012 ft 225 kts 232°
2026-05-05 11:55 51.50248 7.22427 3014 ft 226 kts 231°
2026-05-05 11:56 51.49308 7.20418 3008 ft 225 kts 233°
2026-05-05 11:56 51.48368 7.18406 3007 ft 225 kts 232°
2026-05-05 11:56 51.47427 7.16396 3011 ft 225 kts 232°
2026-05-05 11:56 51.46490 7.14397 3006 ft 224 kts 233°
2026-05-05 11:57 51.45550 7.12396 3005 ft 225 kts 232°
2026-05-05 11:57 51.44611 7.10395 2997 ft 224 kts 232°
2026-05-05 11:57 51.43671 7.08396 2998 ft 225 kts 232°
2026-05-05 11:57 51.42730 7.06397 3004 ft 225 kts 232°
2026-05-05 11:58 51.41788 7.04395 3007 ft 225 kts 232°
2026-05-05 11:58 51.40846 7.02396 2994 ft 225 kts 232°
2026-05-05 11:58 51.39905 7.00400 3004 ft 225 kts 232°
2026-05-05 11:58 51.38962 6.98401 3001 ft 224 kts 232°
2026-05-05 11:59 51.38022 6.96410 2999 ft 225 kts 232°
2026-05-05 11:59 51.37066 6.94389 2714 ft 231 kts 232°
2026-05-05 11:59 51.36130 6.92419 2485 ft 218 kts 233°
2026-05-05 11:59 51.35136 6.90535 1758 ft 228 kts 228°
2026-05-05 12:00 51.34113 6.88637 1708 ft 200 kts 243°